CAPE
0 0 0 1 9 14 13 10 6 6 1 0 0 0 0 2 14 0 0 0 0 5 1 1 0 1 10 4 1 1 16 0 0 0 1 0 0 0 0 0 0 0 0 0 0 0 0 0 0 0 0 0 0 0
1 0 1 5 4 2 3 4 7 13 14 5 0 0 0 2 1 18 0 0 4 4 0 0 0 0 2 20 31 22 11 8 18 0 0 0 5 0 0 0 0 0 0 0 0 0 0 0 0 0 0 0 0 0
2 6 4 2 4 6 4 4 5 4 13 19 19 10 0 0 0 16 12 0 0 1 0 0 0 0 0 0 0 0 0 0 0 6 20 6 8 0 0 0 0 0 0 0 0 0 0 0 0 0 0 0 0 0
4 1 6 6 4 3 2 5 2 5 9 14 23 25 21 6 1 5 3 1 6 3 0 0 0 0 0 0 0 0 1 2 22 20 25 0 0 0 0 0 15 3 0 0 0 0 0 0 3 1 0 0 0 0
3 6 4 8 5 7 8 4 0 3 9 11 13 20 19 19 17 6 0 0 0 0 0 0 0 0 0 0 0 0 0 0 3 4 6 3 1 0 0 1 7 5 1 2 0 0 0 0 1 0 0 0 0 0
2 4 4 2 2 7 8 10 15 18 20 18 14 13 16 25 18 0 0 0 0 7 4 1 0 0 0 0 0 0 0 0 1 2 1 5 0 0 11 0 0 0 0 0 0 0 0 0 0 1 0 0 0 0
3 1 0 0 0 1 2 10 16 20 20 22 20 22 21 23 10 16 0 2 25 9 8 0 0 0 0 0 0 0 0 0 0 0 3 3 1 8 3 4 0 0 0 2 0 0 0 0 0 0 0 0 0 0
1 0 0 0 0 0 1 5 9 16 23 26 30 36 23 22 14 0 0 4 21 5 0 0 0 0 0 0 0 0 0 0 0 0 0 3 0 16 14 0 0 0 0 0 0 0 0 0 0 0 0 0 0 0
2 1 0 0 1 1 2 3 10 12 19 28 40 29 2 0 0 0 0 0 1 2 0 0 0 0 0 0 0 0 2 1 1 3 13 12 0 3 0 0 0 0 0 1 1 0 0 0 0 0 0 0 0 0
2 1 0 1 1 2 3 4 12 16 26 22 12 1 0 0 0 0 1 1 4 24 0 0 0 0 0 0 0 0 0 0 0 0 0 2 1 0 0 0 0 0 1 0 0 0 0 0 0 0 0 0 0 0
1 2 2 2 3 5 6 12 22 26 24 4 6 0 0 0 0 0 2 3 8 11 0 0 0 0 0 0 0 0 0 0 0 0 1 0 0 0 0 0 0 0 0 1 0 0 0 0 0 0 0 0 0 0
3 2 5 3 2 4 10 18 23 11 5 7 4 0 0 0 0 0 0 0 0 0 0 0 0 0 0 0 0 0 0 0 0 0 0 0 0 0 0 0 0 0 0 0 0 0 0 0 0 0 0 0 0 0
4 3 4 3 1 5 13 11 15 21 38 27 11 0 3 0 0 3 0 0 0 0 0 2 3 0 0 10 12 0 0 0 0 0 0 0 0 0 1 0 0 3 7 0 0 0 0 0 0 0 0 0 0 0
4 5 4 1 1 5 6 3 9 37 22 6 16 2 0 0 0 0 0 0 0 0 0 0 0 1 0 9 2 0 0 0 0 0 0 0 0 4 6 3 5 0 0 0 0 0 0 0 0 0 0 0 0 0
10 7 1 0 0 1 2 3 33 29 9 2 11 0 0 0 0 0 0 0 0 0 0 0 1 0 0 0 0 0 0 0 0 0 0 0 0 0 0 0 0 0 0 0 0 0 0 0 0 0 0 0 0 0
12 11 0 0 3 4 6 29 16 17 0 5 17 0 0 0 0 0 0 0 0 0 0 0 1 0 0 0 0 0 0 0 0 0 0 0 0 0 0 0 0 0 0 0 0 0 0 0 0 0 0 0 0 0
37 4 0 0 5 4 18 22 1 1 0 0 0 0 0 0 0 0 0 0 0 0 0 0 0 0 0 0 0 0 0 0 0 0 0 0 0 0 0 0 0 0 0 0 0 0 0 0 0 0 0 0 0 0
13 0 4 6 11 11 2 3 0 0 10 0 0 0 0 0 0 0 0 0 0 0 0 0 0 0 0 0 0 0 0 0 0 0 0 0 0 0 0 0 0 0 0 0 0 0 0 0 0 0 0 0 0 0
0 0 1 11 9 3 10 0 0 0 0 0 0 0 0 0 0 0 0 0 0 0 0 0 0 0 0 0 0 0 0 0 0 0 0 0 0 0 0 0 0 0 0 0 0 0 0 0 0 0 0 0 0 0
18 16 19 16 39 17 12 4 0 0 0 0 0 0 0 0 0 0 0 0 0 0 0 0 0 0 0 0 0 0 0 0 0 0 0 0 0 0 0 0 0 0 0 0 0 0 0 0 0 0 0 0 0 0
11 0 16 23 12 8 0 0 0 0 0 0 0 0 0 0 0 0 0 0 0 0 0 0 0 0 0 0 0 0 0 0 0 0 0 0 0 0 0 0 0 0 0 0 0 0 0 0 0 0 0 0 0 0
0 8 0 5 8 3 2 0 0 0 0 0 0 0 0 0 0 0 0 0 0 0 0 0 0 0 0 0 0 0 0 0 0 0 0 0 0 0 0 0 0 0 0 0 0 0 0 0 0 0 0 0 0 0
22 9 8 1 0 0 0 0 0 0 0 0 0 0 0 0 0 0 0 0 0 0 0 0 0 0 0 0 0 0 0 0 0 0 0 0 0 0 0 0 0 0 0 0 0 0 0 0 0 0 0 0 0 0
17 13 8 8 0 0 0 1 0 0 0 0 0 0 0 0 0 0 0 0 0 0 0 0 0 0 0 0 0 0 0 0 0 0 0 0 0 0 0 0 0 0 0 0 0 0 0 0 0 0 1 2 0 0
16 5 2 1 0 0 0 0 0 0 0 0 0 0 0 0 0 0 0 0 0 0 0 0 0 0 0 0 0 0 0 0 0 0 0 0 0 0 0 0 0 0 0 0 0 0 0 0 0 1 2 0 0 0
0 0 0 0 0 0 0 0 0 0 0 0 0 0 0 0 0 0 0 0 0 0 0 0 0 0 0 0 0 0 0 0 0 0 0 0 0 0 0 0 0 0 0 0 0 0 0 1 0 0 0 0 1 0
0 0 0 0 0 0 0 0 0 0 0 0 0 0 0 0 0 0 0 0 0 0 0 0 0 0 0 0 0 0 0 0 0 0 0 0 0 0 0 0 0 0 0 0 0 0 0 0 0 0 0 0 0 0
0 0 0 0 0 0 0 0 0 0 0 0 0 0 0 0 0 0 0 0 0 0 0 0 0 0 0 0 0 0 0 0 0 0 0 0 0 0 0 0 0 0 0 0 0 0 0 0 0 0 0 1 0 0
0 0 0 0 0 0 0 0 0 0 0 0 0 0 0 0 0 0 0 0 0 0 0 0 0 0 0 0 0 0 0 0 0 0 0 0 0 0 0 0 0 0 0 1 0 0 0 0 0 1 1 0 1 1
0 0 0 0 0 0 0 0 0 0 0 0 0 0 0 0 0 0 0 0 0 0 0 0 0 0 0 0 0 0 0 0 1 1 0 0 0 0 0 0 1 1 1 0 0 0 0 0 1 1 1 0 0 0
0 0 0 0 0 0 0 0 0 0 0 0 0 0 0 0 0 0 0 0 0 0 0 0 0 0 0 0 0 0 0 0 0 0 0 0 0 0 0 0 1 0 0 0 0 0 0 0 0 0 0 0 0 0
0 0 0 0 0 0 0 0 0 0 0 0 0 0 0 0 0 0 0 0 0 0 0 0 0 0 0 0 0 0 1 0 0 0 0 0 0 0 0 0 0 0 0 0 0 0 0 0 0 0 0 0 0 0
0 0 0 0 0 0 0 0 0 0 0 0 0 0 0 0 0 0 0 0 0 0 0 0 0 0 0 0 0 0 0 0 0 1 2 1 2 1 0 0 0 0 0 0 0 0 0 0 0 0 0 0 0 0
CIN
-0 -0 -0 -0 -0 -0 -0 -0 -0 -1 -0 -0 -0 -0 -0 -0 -1 -0 -0 -0 -0 -0 -1 -2 -0 -0 -2 -2 -0 -0 -1 -0 -0 -0 -0 -2 -0 -0 -0 -0 -0 -0 -0 -0 -0 -0 -0 -0 -0 -0 -0 -0 -0 -0
-0 -0 -0 -0 -1 -1 -0 -0 -0 -1 -1 -1 -0 -0 -0 -0 -0 -1 -0 -0 -6 -0 -0 -0 -0 -0 -13 -3 -0 -1 -0 -6 -4 -11 -0 -0 -12 -0 -0 -0 -0 -2 -0 -0 -0 -0 -0 -0 -0 -0 -0 -0 -0 -0
-1 -0 -0 -0 -0 -0 -0 -0 -0 -0 -0 -0 -0 -0 -0 -0 -0 -0 -2 -0 -0 -0 -0 -0 -0 -0 -0 -0 -0 -0 -0 -0 -0 -4 -0 -1 -0 -0 -0 -0 -0 -0 -0 -0 -0 -0 -0 -0 -0 -0 -0 -0 -0 -0
-0 -0 -0 -0 -0 -0 -0 -0 -0 -0 -0 -0 -0 -0 -0 -1 -1 -0 -0 -1 -1 -3 -0 -0 -0 -0 -0 -0 -0 -0 -0 -0 -7 -3 -1 -0 -0 -0 -0 -0 -2 -20 -0 -0 -0 -0 -0 -0 -3 -22 -0 -0 -0 -0
-0 -0 -0 -0 -0 -0 -0 -0 -0 -0 -0 -0 -0 -0 -2 -2 -1 -1 -0 -0 -0 -0 -0 -0 -0 -0 -0 -0 -0 -0 -0 -0 -0 -0 -0 -1 -0 -0 -0 -0 -0 -1 -0 -1 -0 -0 -0 -0 -2 -2 -0 -0 -0 -0
-0 -0 -0 -0 -0 -0 -0 -0 -0 -0 -0 -0 -0 -0 -0 -0 -2 -0 -0 -0 -0 -0 -0 -0 -0 -0 -0 -0 -0 -0 -0 -0 -0 -0 -0 -1 -0 -0 -1 -0 -0 -0 -0 -0 -0 -0 -0 -0 -0 -11 -6 -0 -0 -0
-0 -0 -0 -0 -0 -0 -0 -0 -0 -0 -0 -0 -0 -0 -0 -0 -2 -1 -0 -7 -2 -4 -3 -0 -0 -0 -0 -0 -0 -0 -0 -0 -0 -0 -0 -0 -0 -0 -3 -0 -0 -0 -0 -3 -0 -0 -0 -0 -0 -0 -0 -0 -0 -0
-0 -0 -0 -0 -0 -0 -0 -0 -0 -0 -0 -0 -0 -0 -0 -1 -2 -0 -0 -13 -12 -2 -0 -0 -0 -0 -0 -0 -0 -0 -0 -0 -1 -0 -0 -1 -3 -2 -0 -0 -0 -0 -0 -0 -0 -0 -0 -0 -0 -0 -0 -0 -0 -1
-0 -0 -0 -0 -0 -0 -0 -0 -0 -0 -0 -0 -0 -1 -1 -0 -0 -0 -0 -0 -13 -10 -0 -0 -0 -0 -0 -0 -0 -0 -26 -3 -18 -2 -0 -1 -0 -1 -0 -0 -0 -0 -0 -0 -0 -0 -0 -0 -0 -0 -0 -0 -0 -0
-0 -0 -0 -0 -0 -0 -0 -0 -0 -0 -0 -3 -6 -4 -0 -0 -0 -0 -4 -8 -6 -0 -0 -0 -0 -0 -0 -0 -0 -0 -0 -0 -0 -0 -5 -2 -0 -0 -0 -0 -0 -0 -0 -0 -0 -0 -0 -0 -0 -0 -0 -0 -0 -0
-0 -0 -0 -0 -0 -0 -0 -0 -0 -0 -1 -8 -3 -1 -0 -0 -0 -0 -9 -14 -13 -3 -17 -0 -0 -0 -0 -0 -0 -2 -0 -16 -0 -0 -2 -0 -0 -0 -0 -0 -0 -7 -0 -13 -0 -0 -0 -0 -0 -0 -0 -0 -0 -0
-0 -0 -0 -0 -0 -0 -0 -0 -0 -1 -3 -13 -9 -1 -0 -0 -0 -0 -0 -0 -0 -0 -0 -0 -0 -0 -0 -0 -0 -0 -0 -0 -2 -0 -0 -0 -0 -0 -0 -0 -0 -0 -0 -0 -0 -0 -0 -0 -0 -0 -0 -0 -0 -0
-0 -0 -0 -0 -0 -0 -0 -0 -0 -0 -2 -3 -2 -0 -36 -0 -2 -10 -0 -0 -0 -0 -0 -61 -43 -0 -18 -41 -5 -0 -0 -0 -0 -0 -0 -0 -0 -101 -88 -0 -0 -82 -75 -14 -0 -0 -0 -0 -0 -0 -0 -0 -0 -0
-0 -0 -0 -0 -0 -0 -0 -0 -0 -0 -3 -3 -3 -10 -0 -0 -0 -0 -0 -0 -0 -0 -8 -0 -0 -35 -0 -16 -15 -3 -0 -0 -0 -0 -0 -0 -0 -63 -75 -74 -87 -0 -0 -0 -0 -0 -0 -0 -0 -0 -0 -0 -0 -0
-0 -0 -0 -0 -0 -0 -0 -1 -0 -5 -1 -5 -4 -3 -0 -0 -0 -0 -0 -0 -20 -0 -0 -0 -10 -0 -0 -0 -0 -0 -6 -0 -0 -0 -0 -0 -0 -0 -0 -0 -0 -0 -0 -0 -0 -0 -0 -0 -0 -0 -0 -0 -0 -0
-1 -4 -0 -0 -1 -0 -0 -0 -5 -2 -0 -15 -10 -1 -0 -0 -0 -0 -0 -0 -0 -0 -0 -12 -5 -0 -0 -0 -0 -0 -0 -0 -0 -0 -0 -0 -0 -0 -0 -0 -0 -0 -0 -0 -0 -0 -0 -0 -0 -0 -0 -0 -0 -0
-0 -11 -0 -0 -2 -2 -1 -2 -6 -1 -3 -0 -0 -0 -0 -0 -0 -0 -0 -0 -0 -0 -0 -15 -0 -0 -0 -0 -0 -0 -0 -0 -0 -0 -0 -0 -0 -0 -0 -0 -0 -0 -0 -0 -0 -0 -0 -0 -0 -0 -0 -0 -0 -0
-2 -0 -3 -2 -0 -3 -2 -9 -12 -0 -6 -0 -0 -0 -0 -0 -0 -0 -0 -0 -0 -0 -0 -0 -0 -0 -0 -0 -0 -0 -0 -0 -0 -0 -0 -0 -0 -0 -0 -0 -0 -0 -0 -0 -0 -0 -0 -0 -0 -0 -0 -0 -0 -0
-0 -0 -5 -3 -4 -7 -4 -0 -1 -0 -0 -0 -0 -0 -0 -0 -0 -0 -0 -0 -0 -0 -0 -0 -32 -0 -0 -0 -0 -0 -0 -0 -0 -0 -0 -0 -0 -0 -0 -0 -0 -0 -0 -0 -0 -0 -0 -0 -0 -0 -0 -0 -0 -0
-0 -1 -1 -3 -3 -1 -5 -11 -0 -0 -0 -0 -0 -0 -0 -0 -0 -0 -0 -0 -0 -0 -0 -0 -0 -0 -0 -0 -0 -0 -0 -0 -0 -0 -0 -0 -0 -0 -0 -0 -0 -0 -0 -0 -0 -0 -0 -0 -0 -0 -0 -0 -0 -0
-2 -0 -2 -2 -5 -4 -0 -0 -0 -0 -0 -0 -0 -0 -0 -0 -0 -0 -0 -0 -0 -0 -0 -0 -0 -0 -0 -0 -0 -0 -0 -0 -0 -0 -0 -0 -0 -0 -0 -0 -0 -0 -0 -0 -0 -0 -0 -0 -0 -0 -0 -0 -0 -0
-0 -2 -0 -11 -3 -5 -5 -0 -0 -0 -0 -0 -0 -0 -0 -0 -0 -0 -0 -0 -0 -0 -0 -0 -0 -0 -0 -0 -0 -0 -0 -0 -0 -0 -0 -0 -0 -0 -0 -0 -0 -0 -0 -0 -0 -0 -0 -0 -0 -0 -0 -0 -0 -0
-3 -5 -6 -7 -0 -0 -0 -0 -0 -0 -0 -0 -0 -0 -0 -0 -0 -0 -0 -0 -0 -0 -0 -0 -0 -0 -0 -0 -0 -0 -0 -0 -0 -0 -0 -0 -0 -0 -0 -0 -0 -0 -0 -0 -0 -0 -0 -0 -0 -0 -0 -0 -0 -0
-5 -2 -3 -11 -0 -0 -0 -0 -3 -0 -0 -0 -0 -0 -0 -0 -0 -0 -0 -0 -0 -0 -0 -0 -0 -0 -0 -0 -0 -0 -0 -0 -0 -0 -0 -0 -0 -0 -0 -0 -0 -0 -0 -0 -0 -0 -0 -0 -0 -0 -0 -0 -0 -0
-1 -2 -5 -7 -0 -0 -0 -0 -0 -0 -0 -0 -0 -0 -0 -0 -0 -0 -0 -0 -0 -0 -0 -0 -0 -0 -0 -0 -0 -0 -0 -0 -0 -0 -0 -0 -0 -0 -0 -0 -0 -0 -0 -0 -0 -0 -0 -0 -0 -0 -0 -0 -0 -0
-0 -0 -0 -0 -0 -0 -0 -0 -0 -0 -0 -0 -0 -0 -0 -0 -0 -0 -0 -0 -0 -0 -0 -0 -0 -0 -0 -0 -0 -0 -0 -0 -0 -0 -0 -0 -0 -0 -0 -0 -0 -0 -0 -0 -0 -0 -0 -0 -0 -0 -0 -0 -0 -0
-0 -0 -0 -0 -0 -0 -0 -0 -0 -0 -0 -0 -0 -0 -0 -0 -0 -0 -0 -0 -0 -0 -0 -0 -0 -0 -0 -0 -0 -0 -0 -0 -0 -0 -0 -0 -0 -0 -0 -0 -0 -0 -0 -0 -0 -0 -0 -0 -0 -0 -1 -0 -0 -0
-0 -0 -0 -0 -0 -0 -0 -0 -0 -0 -0 -0 -0 -0 -0 -0 -0 -0 -0 -0 -0 -0 -0 -0 -0 -0 -0 -0 -0 -0 -0 -0 -0 -0 -0 -0 -0 -0 -0 -0 -0 -0 -0 -0 -0 -0 -0 -0 -0 -0 -0 -0 -0 -0
-0 -0 -0 -0 -0 -0 -0 -0 -0 -0 -0 -0 -0 -0 -0 -0 -0 -0 -0 -0 -0 -0 -0 -0 -0 -0 -0 -0 -0 -0 -0 -0 -0 -0 -0 -0 -0 -0 -0 -0 -0 -0 -0 -0 -0 -0 -0 -0 -0 -0 -0 -0 -0 -0
-0 -0 -0 -0 -0 -0 -0 -0 -0 -0 -0 -0 -0 -0 -0 -0 -0 -0 -0 -0 -0 -0 -0 -0 -0 -0 -0 -0 -0 -0 -0 -0 -0 -0 -0 -0 -0 -0 -0 -0 -0 -0 -0 -0 -0 -0 -0 -0 -0 -0 -0 -0 -0 -0
-0 -0 -0 -0 -0 -0 -0 -0 -0 -0 -0 -0 -0 -0 -0 -0 -0 -0 -0 -0 -0 -0 -0 -0 -0 -0 -0 -0 -0 -0 -0 -0 -0 -0 -0 -0 -0 -0 -0 -0 -0 -0 -0 -0 -0 -0 -0 -0 -0 -0 -0 -0 -0 -0
-0 -0 -0 -0 -0 -0 -0 -0 -0 -0 -0 -0 -0 -0 -0 -0 -0 -0 -0 -0 -0 -0 -0 -0 -0 -0 -0 -0 -0 -0 -0 -0 -0 -0 -0 -0 -0 -0 -0 -0 -0 -0 -0 -0 -0 -0 -0 -0 -0 -0 -0 -0 -0 -0
-0 -0 -0 -0 -0 -0 -0 -0 -0 -0 -0 -0 -0 -0 -0 -0 -0 -0 -0 -0 -0 -0 -0 -0 -0 -0 -0 -0 -0 -0 -0 -0 -0 -0 -0 -0 -0 -0 -0 -0 -0 -0 -0 -0 -0 -0 -0 -0 -0 -0 -0 -0 -0 -0
Wind_Speed
26 26 28 27 28 28 28 28 29 29 29 30 30 30 29 29 28 26 25 23 25 32 35 33 32 33 32 34 42 35 39 30 30 33 34 34 36 32 35 33 32 38 39 37 34 37 45 27 23 34 34 40 48 49
26 26 26 27 28 28 29 29 29 30 30 29 30 30 30 29 29 27 28 25 25 30 33 34 34 29 29 29 31 29 32 33 30 33 32 34 38 36 41 50 32 43 31 38 37 44 36 29 44 44 45 50 47 48
26 25 25 25 26 27 27 28 29 30 30 31 30 29 30 30 29 28 28 28 29 34 40 32 27 24 24 24 23 36 30 29 32 30 41 42 45 41 51 45 42 37 33 40 41 41 43 43 50 53 48 44 47 50
25 25 25 25 26 26 27 27 28 29 30 30 31 31 30 29 29 29 29 27 27 32 42 40 27 25 21 23 23 25 31 30 30 30 37 37 39 32 45 47 43 36 37 45 48 45 50 50 42 39 51 52 57 55
25 24 24 26 26 27 28 29 28 30 30 30 31 31 32 31 30 29 29 29 25 28 41 47 45 43 32 28 28 30 30 30 33 37 38 46 38 39 45 46 49 39 41 44 58 52 51 52 51 50 54 53 48 51
23 23 24 24 24 25 26 28 29 29 29 30 31 31 32 32 31 29 33 24 19 19 34 45 33 36 39 32 29 28 27 27 27 31 34 33 34 35 41 47 38 44 44 45 51 48 49 53 51 48 48 47 49 47
22 21 21 23 24 25 26 28 28 30 30 31 31 33 32 32 27 29 29 25 22 22 32 40 39 29 27 28 29 30 28 27 28 32 36 37 37 37 46 56 51 49 46 46 50 48 49 45 46 45 44 44 43 43
22 22 22 23 25 26 28 29 31 31 32 33 33 33 33 32 31 31 29 28 24 28 27 35 37 37 29 35 35 29 33 30 30 33 35 37 39 36 45 45 41 38 41 40 38 39 40 39 39 38 37 39 42 43
23 24 24 25 27 28 30 31 32 33 34 33 33 34 30 28 29 28 25 24 20 22 30 31 38 45 28 32 32 32 30 37 33 36 35 31 34 37 36 36 35 33 34 36 35 36 38 38 36 37 40 40 41 41
25 25 26 27 28 30 31 32 32 33 34 33 30 29 31 25 24 29 27 26 24 23 26 36 31 39 32 33 35 35 29 31 36 31 25 30 35 32 30 28 27 25 28 30 32 35 34 35 37 39 37 38 38 39
26 27 27 28 29 30 31 31 31 31 32 28 28 29 27 26 28 27 29 28 26 29 26 31 29 34 27 32 32 25 29 28 33 32 30 32 35 31 21 20 18 18 23 26 27 30 32 35 37 39 39 38 37 40
28 28 28 28 29 29 30 30 30 30 27 25 27 27 27 26 26 27 28 26 27 30 26 27 26 24 25 22 25 21 25 24 29 25 27 31 26 20 19 18 24 26 27 26 27 32 35 35 36 37 39 40 41 41
26 26 27 28 29 29 30 29 27 27 28 24 25 25 24 24 28 28 29 28 29 26 25 26 27 27 25 24 25 25 27 29 25 28 30 26 22 17 20 21 30 31 27 30 36 37 38 41 45 43 44 43 42 43
22 22 23 25 27 30 31 29 26 25 23 24 27 30 25 26 25 25 27 26 24 26 28 28 32 29 27 26 26 29 27 25 28 31 32 31 26 27 27 29 34 40 37 40 41 41 43 45 47 47 46 45 45 45
15 17 18 21 25 25 31 30 24 20 22 24 22 29 25 22 23 25 23 25 25 26 26 30 32 28 29 29 25 26 28 29 25 29 35 38 36 33 34 37 40 41 45 47 44 45 47 45 46 49 50 47 47 48
16 19 20 23 23 23 24 25 23 19 20 22 23 25 24 26 25 25 26 28 25 25 26 27 28 30 30 25 25 27 30 35 39 36 40 42 43 40 44 44 44 41 44 47 46 47 46 48 47 46 49 51 50 49
17 23 20 21 21 23 23 22 19 20 21 21 24 20 22 25 27 27 26 27 25 27 30 29 30 31 28 29 31 27 32 36 35 42 40 38 43 49 49 45 39 43 46 46 44 44 44 44 44 45 50 54 52 51
21 21 20 19 21 23 22 17 19 20 21 21 24 23 24 24 27 28 27 26 27 28 29 32 30 29 30 35 37 35 37 36 35 36 40 42 40 39 35 35 41 42 43 42 39 37 38 41 44 44 44 45 47 47
19 20 21 20 19 18 22 19 17 22 20 21 21 23 25 28 27 29 33 33 29 29 27 27 26 26 29 32 35 33 33 33 32 38 39 33 32 28 27 35 36 39 38 36 35 32 34 34 33 36 38 42 46 45
22 21 18 17 14 18 20 18 14 18 20 21 23 25 26 28 32 32 32 31 30 28 28 29 29 30 33 29 28 30 27 28 31 27 29 24 26 32 35 34 36 36 36 32 28 29 31 30 30 29 29 30 45 45
23 22 21 19 19 16 16 15 14 16 21 23 25 25 28 27 27 29 31 28 27 29 31 28 30 31 27 27 29 26 26 28 24 22 29 41 45 32 24 26 27 26 25 25 25 25 22 21 21 30 26 22 41 42
20 17 19 17 16 15 14 10 12 12 16 20 23 23 27 31 32 30 29 29 31 24 26 31 32 27 26 25 24 25 23 22 24 23 27 25 27 24 22 20 19 19 20 21 24 21 22 18 20 17 15 14 33 39
17 16 17 15 9 6 8 6 13 15 19 20 21 26 28 29 31 29 31 27 28 24 21 21 20 22 22 24 24 23 22 27 30 25 25 27 27 26 24 21 19 22 24 25 24 19 19 18 16 16 13 18 37 35
16 20 18 7 5 8 6 7 9 11 12 17 19 22 25 27 28 28 26 18 26 25 18 20 17 17 18 19 22 24 26 22 20 28 26 24 24 26 25 27 23 21 21 22 20 19 18 16 15 16 23 31 33 33
22 11 6 6 2 6 8 7 6 9 13 15 16 21 24 26 24 23 33 33 29 24 20 13 12 13 16 24 33 34 27 20 27 33 33 22 27 32 30 28 25 20 17 21 20 18 16 15 18 27 27 27 30 30
18 7 2 3 5 7 5 6 6 9 12 14 13 20 24 22 18 16 10 23 22 22 20 16 17 23 27 22 25 28 31 32 27 30 30 27 26 28 32 29 26 22 16 13 14 13 13 14 7 24 30 29 30 30
19 8 2 7 7 8 8 9 8 11 12 12 16 13 9 10 10 15 24 24 22 18 17 18 23 29 32 34 33 37 35 28 27 30 34 31 24 19 24 28 26 23 15 10 8 7 10 13 16 21 26 27 29 30
6 5 7 5 9 10 7 8 9 10 11 12 12 5 11 20 32 32 33 31 24 28 33 32 32 34 37 33 35 34 32 31 31 30 26 20 15 13 14 14 13 15 14 11 9 6 6 10 14 20 26 27 28 29
8 4 4 10 12 9 8 8 9 9 10 7 18 26 30 32 33 31 32 32 32 32 32 34 35 34 34 33 31 27 26 24 22 23 24 22 17 8 6 4 9 9 10 9 8 7 9 13 16 22 27 28 27 29
7 5 11 10 8 9 9 7 9 10 10 10 12 30 32 31 31 30 31 32 31 30 30 29 28 28 29 32 30 26 27 23 21 21 21 18 15 21 21 15 12 11 10 8 8 7 10 15 19 23 26 26 28 29
7 7 12 11 10 10 11 13 12 10 10 20 25 29 32 33 31 25 25 26 25 24 24 24 24 25 25 24 22 22 22 19 18 20 21 21 21 18 15 13 12 12 12 12 11 12 12 19 24 26 27 28 29 30
10 11 11 10 10 15 16 14 21 36 32 30 30 30 29 29 28 21 19 23 22 23 23 24 24 24 18 16 17 15 15 17 18 18 18 17 17 15 14 13 10 11 13 14 14 14 16 21 25 26 27 28 29 29
18 17 16 13 14 14 10 20 31 31 29 28 29 28 26 24 22 18 12 20 24 22 21 21 20 19 17 15 14 14 16 18 18 19 19 20 23 24 23 18 14 13 13 13 14 14 16 19 21 22 22 22 20 13
Wind_Direction
302 304 304 306 309 311 314 316 316 318 320 320 321 320 320 321 322 324 320 322 314 306 305 305 305 306 308 310 309 317 319 324 321 313 313 311 308 309 307 308 307 304 304 301 300 298 302 320 320 314 316 312 313 313
299 302 303 306 307 309 310 312 314 316 317 318 318 319 319 321 321 322 316 323 320 308 305 310 307 306 306 307 308 313 310 312 316 312 312 312 307 306 305 299 305 299 300 301 295 295 304 306 307 308 309 309 311 311
297 301 302 306 308 310 311 311 313 314 315 315 315 316 317 319 320 319 314 317 317 310 309 311 321 323 313 300 298 301 305 305 302 301 302 300 295 303 299 300 301 302 299 295 300 302 299 302 306 305 307 309 309 310
295 299 302 305 306 308 309 311 314 315 316 315 315 315 315 317 318 318 314 315 313 311 303 306 319 319 332 320 308 300 298 302 305 306 303 301 299 303 299 301 299 303 306 301 298 302 302 304 306 311 308 308 308 309
296 299 302 301 304 307 308 310 311 312 313 314 315 314 315 315 315 316 314 310 304 302 301 301 305 306 311 308 298 299 298 299 300 297 295 295 298 299 298 297 292 295 295 296 297 303 301 302 306 309 308 308 310 311
295 298 301 305 308 312 312 313 313 314 314 314 314 314 313 315 316 316 313 324 326 312 306 303 311 309 309 312 309 305 304 302 299 302 300 297 298 298 298 294 299 300 300 300 299 303 303 303 307 309 308 310 311 313
291 297 302 305 309 311 313 314 316 315 316 313 313 312 312 312 313 306 306 317 323 323 309 307 309 317 319 320 318 315 314 305 297 297 295 295 294 294 295 293 301 301 300 300 302 305 305 309 309 313 314 315 316 315
288 294 298 302 306 309 310 312 313 314 314 313 312 311 311 311 310 305 302 298 301 307 307 304 305 310 317 311 311 316 310 308 304 302 304 301 302 298 294 299 303 307 307 307 309 311 310 314 317 317 321 322 320 320
285 290 295 299 302 305 307 309 311 312 312 312 311 311 313 312 310 312 318 317 307 296 301 303 305 307 319 313 314 315 313 307 308 302 302 306 303 300 304 307 310 314 316 317 319 318 316 316 317 319 321 321 322 323
283 288 292 296 300 303 306 308 310 311 312 311 315 313 309 313 318 317 315 308 303 297 296 298 303 299 310 312 312 313 315 311 307 310 316 308 304 304 311 314 319 325 328 330 328 326 325 325 323 321 320 322 323 323
281 286 290 295 299 303 306 309 311 314 315 313 308 304 309 316 313 311 304 303 306 305 307 308 302 302 313 307 308 310 311 312 308 313 312 312 312 318 327 334 340 344 341 336 334 331 328 324 322 323 320 322 324 320
278 284 288 293 298 302 306 310 313 312 313 312 310 311 310 307 304 301 300 305 305 306 313 312 313 316 320 321 314 317 314 317 312 325 320 316 327 341 344 340 337 333 327 326 329 326 324 325 325 319 318 314 310 310
276 281 286 291 297 301 306 312 317 315 312 312 307 306 307 304 292 295 296 304 306 311 313 314 312 317 319 320 312 313 309 307 317 311 310 315 329 331 327 325 326 325 321 321 322 321 321 314 299 305 300 305 306 311
273 280 287 292 298 301 305 312 317 316 311 304 301 294 289 296 297 292 296 300 304 310 312 312 312 312 313 310 309 306 308 311 309 309 310 316 316 317 318 318 318 317 316 315 314 315 313 312 304 298 299 300 304 306
259 276 286 294 300 306 304 308 313 310 302 295 297 292 293 300 299 302 302 303 306 311 311 311 310 310 306 304 305 306 306 303 308 311 312 312 315 315 316 317 317 316 315 315 313 311 308 308 307 301 296 300 303 305
263 280 284 294 300 306 310 312 309 303 298 291 289 293 301 301 300 302 302 301 309 310 313 313 310 309 304 303 303 301 301 298 303 307 310 309 311 313 313 315 315 317 317 316 314 311 309 305 304 304 301 298 299 302
267 280 288 295 302 306 310 311 305 290 293 294 292 294 296 299 301 303 305 306 310 306 302 305 301 301 307 304 300 303 299 303 305 306 308 310 307 305 310 315 317 317 316 317 317 313 310 310 309 307 303 298 299 299
267 283 289 298 305 311 312 302 293 292 289 290 290 293 298 299 301 303 306 306 306 302 301 297 300 293 296 300 302 303 302 301 303 305 307 308 309 311 313 314 315 316 317 317 317 316 315 312 310 310 310 307 301 297
273 283 291 297 305 312 306 301 285 288 283 293 295 299 301 302 301 301 302 301 300 298 302 303 300 301 300 302 302 302 305 305 303 307 309 310 310 308 303 314 315 316 316 317 317 316 315 314 312 310 311 309 299 295
278 284 291 296 300 301 301 301 295 300 298 298 299 299 300 303 305 303 300 301 300 297 295 296 295 295 298 298 298 299 296 302 309 303 271 280 313 316 316 316 316 317 318 319 319 320 319 319 317 315 315 316 292 289
284 288 291 292 290 284 295 296 295 305 308 305 309 307 306 308 306 305 305 308 299 297 296 295 294 296 292 295 304 300 301 306 298 281 267 268 272 315 304 312 315 317 317 319 320 318 313 307 308 317 316 314 304 283
288 288 291 289 291 296 291 294 313 323 309 312 314 313 308 306 306 308 310 301 298 292 296 298 298 298 297 295 293 299 296 279 269 275 274 282 274 279 280 285 307 298 304 309 315 293 275 291 311 307 296 276 263 271
282 289 290 287 288 275 295 294 298 307 310 316 315 310 309 310 310 316 309 310 306 303 296 293 271 272 283 273 273 271 271 263 262 268 267 263 264 265 269 278 290 288 279 276 311 287 281 277 294 276 266 246 267 262
277 277 282 295 200 309 328 308 316 315 316 314 316 316 316 316 318 315 316 270 253 250 256 258 289 280 273 265 260 259 258 259 263 258 260 265 268 267 274 272 280 295 294 288 286 281 282 282 278 254 243 250 253 249
266 280 281 286 306 316 314 326 326 324 313 317 317 319 321 322 321 323 259 263 261 257 256 283 294 284 271 262 263 262 259 262 260 263 263 271 269 270 272 271 270 278 291 270 269 271 270 263 244 242 236 236 240 239
180 193 230 188 254 298 320 325 314 300 317 323 318 324 322 326 328 326 270 261 261 260 260 269 270 264 262 262 263 263 264 265 264 263 264 263 265 268 270 271 271 271 317 290 267 267 257 245 229 240 244 234 235 230
181 173 265 296 318 331 342 347 353 339 332 326 330 332 334 235 234 260 257 260 263 270 273 273 263 262 265 269 267 266 265 261 259 261 265 264 265 269 262 265 267 266 264 262 263 253 235 230 225 223 225 229 226 221
265 191 235 268 301 303 294 315 322 321 324 335 341 257 230 254 258 265 268 269 273 273 272 269 266 267 269 267 268 267 265 263 262 261 260 256 253 252 252 256 257 256 253 247 236 218 208 212 209 202 214 219 223 219
268 254 258 280 295 305 284 291 296 304 320 306 240 248 249 254 264 269 272 274 276 274 274 275 275 274 274 272 268 263 260 256 256 258 259 262 261 251 30 269 265 257 240 223 214 206 203 203 186 184 201 211 215 212
235 220 281 284 258 255 271 288 294 312 318 289 254 255 259 261 265 271 274 276 276 277 277 278 278 281 284 288 279 270 274 261 252 247 254 254 253 270 275 268 265 262 242 220 215 204 185 179 162 177 200 209 208 204
243 256 287 280 259 271 293 313 314 306 261 244 248 254 261 269 272 271 272 277 281 281 285 287 287 288 288 284 274 271 269 261 249 255 258 259 263 262 260 263 263 260 250 243 230 209 174 181 184 184 195 199 199 198
260 251 261 267 277 314 325 326 318 271 255 253 256 258 264 268 270 260 267 288 288 291 290 291 292 290 280 271 268 251 242 248 254 257 260 259 259 259 260 260 255 256 253 247 240 224 186 176 183 194 196 196 195 196
281 287 295 299 311 321 331 314 282 270 255 253 256 258 258 258 258 253 55 19 311 292 289 288 285 279 271 265 258 259 266 266 265 266 267 273 287 289 287 272 264 261 250 239 237 232 222 204 203 207 213 217 225 240